STARLINK-34729, 65364

Orbit data source: Space-Track

STARLINK-34729, 65364 is a payload satellite owned by SpaceX/Seattle (US) in LEO that was launched on Thu, 28 Aug 2025 UTC via an FALCON 9 launch vehicle from the Air Force Eastern Test Range (AFETR). Payload-class satellites include a variety of spacecraft equipped with specific instruments for various scientific and technological missions. These include communications satellites like Starlink; space stations such as the ISS; scientific satellites like the Hubble; Earth observation satellites from companies like Planet Labs, Umbra, and HawkEye 360; GPS; miniature CubeSats for education and research; and military/defense satellites.

Loading next visibility...
Identifier
65364, 2025-190P
Orbit
LEO
Country
Flag of USUS
Related business
Manufacturer
SpaceX/Seattle
Mission
Operational Commercial Communications
Bus & Motor
STARLINK V2MO, Unknown motor
Mass
575 kg wet, ~530 kg dry
Launch date (UTC)
2025-08-28 (7 months ago)
Launch vehicle
FALCON 9
Launch site
Air Force Eastern Test Range (AFETR)
Object type
Payload
Rocket body
Debris
Shape & HBR
Box + 2 Pan, 17.7 m
Radar Cross Section
36.964 m², Large (>1 m²)

Expand to show TLE details & history
Last TLE update: 7 hours ago

TLE from 7 hours ago
0 STARLINK-34729
1 65364U 25190P   26094.27756388  .00048894  00000-0  16515-2 0  9991
2 65364  53.1604  49.2626 0001475  78.5170 281.5997 15.30210671 34092
Epoch: 2026-04-04T06:39Z
TLE epoch observation values (Epoch: 2026-04-04T06:39:41.519Z)
Latitude
0.00004°
Longitude
116.73999°
Altitude
475.88 km
Speed
7.629 km/s
True Right ascension
03h 17m 03s
True Declination
0° 00' 00"
Sunlit
Object was in daylight at epoch
Visualization orbit readout
Latitude
Unknown
Longitude
Unknown
Altitude
Unknown
Speed
Unknown
Apparent Right ascension
Unknown
Apparent Declination
Unknown
Sunlit
N/A
Visualization observer readout
Local Sidereal Time
19:26:30
Azimuth
Unknown
Elevation
Unknown
Doppler factor
Unknown
Orbital elements
Apogee altitude
476.45 km
Perigee altitude
474.429 km
Semi-major axis
6,853.577 km
Eccentricity
0.00015
Inclination
53.1604°
RAAN
49.2626°
Arg. of periapsis
78.517°
True anomaly
281.58314°
Mean anomaly
281.5997°
Eccentric anomaly
281.59142°
Mean motion
3.82532 °/min
Orbital period
94.11 mins
BSTAR
0.0016515
Loading maneuver chart data...
Computing Atmospheric mass density...
Loading historical data...
Loading historical data...
Loading historical data...
Loading historical data...
Loading historical data...
Loading historical data...
Loading historical data...

Documentation

Showing up to 5 results
|